{"data":{"norad_id":69934,"epoch":"2026-09-19T22:58:13.438272Z","epoch_age_seconds":64692,"freshness":"FRESH","line1":"1 69934U 26156BT  26262.95709998  .00001256  00000+0  12701-3 0  9992","line2":"2 69934  97.7459 162.2584 0007920 275.8648  84.1669 14.92739027 11134","mean_motion":14.92739027,"eccentricity":0.000792,"inclination_deg":97.7459,"raan_deg":162.2584,"arg_perigee_deg":275.8648,"mean_anomaly_deg":84.1669,"bstar":0.00012701,"rev_number":1113,"period_min":96.466962674246,"perigee_km":583.88116689607,"apogee_km":594.91774464201,"semimajor_km":6967.536455769,"source":"CELESTRAK","updated_at":"2026-09-20T09:00:25.207933Z"}}